| time (UTC) | temp F | wind direction | speed MPH | gust MPH | rain 1hr in | rain 24hr in | rain mn in | humidity % | barometer mb |
| 20260509053004 | 51 | 196 | 3.0 | 7.0 | 0.00 | 0.00 | 0.00 | 41 | 1002.9 |
| 20260509052504 | 51 | 195 | 2.0 | 5.0 | 0.00 | 0.00 | 0.00 | 41 | 1002.9 |
| 20260509052004 | 51 | 195 | 2.0 | 6.0 | 0.00 | 0.00 | 0.00 | 41 | 1002.9 |
| 20260509051504 | 51 | 194 | 3.0 | 6.0 | 0.00 | 0.00 | 0.00 | 41 | 1003.2 |
| 20260509051003 | 51 | 193 | 3.0 | 6.0 | 0.00 | 0.00 | 0.00 | 41 | 1003.2 |
| 20260509050504 | 51 | 196 | 3.0 | 6.0 | 0.00 | 0.00 | 0.00 | 41 | 1003.2 |
| 20260509050004 | 51 | 194 | 3.0 | 7.0 | 0.00 | 0.00 | 0.00 | 41 | 1003.3 |
| 20260509045504 | 51 | 195 | 3.0 | 7.0 | 0.00 | 0.00 | 0.00 | 41 | 1003.3 |
| 20260509045004 | 52 | 197 | 3.0 | 6.0 | 0.00 | 0.00 | 0.00 | 41 | 1003.3 |
| 20260509044504 | 51 | 198 | 2.0 | 6.0 | 0.00 | 0.00 | 0.00 | 41 | 1003.4 |
| 20260509043004 | 51 | 200 | 1.0 | 3.0 | 0.00 | 0.00 | 0.00 | 41 | 1003.3 |
| 20260509042504 | 51 | 198 | 0.0 | 3.0 | 0.00 | 0.00 | 0.00 | 42 | 1003.3 |
| 20260509042004 | 51 | 222 | 0.0 | 1.0 | 0.00 | 0.00 | 0.00 | 42 | 1003.3 |
| 20260509041503 | 51 | 203 | 0.0 | 1.0 | 0.00 | 0.00 | 0.00 | 42 | 1003.5 |
| 20260509041004 | 51 | 197 | 0.0 | 2.0 | 0.00 | 0.00 | 0.00 | 42 | 1003.5 |
| 20260509040503 | 52 | 196 | 0.0 | 2.0 | 0.00 | 0.00 | 0.00 | 42 | 1003.5 |
| 20260509040006 | 52 | 0 | 0.0 | 0.0 | 0.00 | 0.00 | 0.00 | 41 | 1003.8 |
| 20260509035503 | 52 | 0 | 0.0 | 0.0 | 0.00 | 0.00 | 0.00 | 41 | 1003.8 |
| 20260509034503 | 52 | 200 | 0.0 | 3.0 | 0.00 | 0.00 | 0.00 | 40 | 1003.8 |
| 20260509033504 | 53 | 200 | 0.0 | 3.0 | 0.00 | 0.00 | 0.00 | 39 | 1003.8 |
| 20260509033004 | 53 | 200 | 0.0 | 3.0 | 0.00 | 0.00 | 0.00 | 39 | 1003.9 |
| 20260509032504 | 53 | 192 | 0.0 | 3.0 | 0.00 | 0.00 | 0.00 | 39 | 1003.9 |
| 20260509032004 | 53 | 195 | 1.0 | 3.0 | 0.00 | 0.00 | 0.00 | 39 | 1003.9 |
| 20260509031503 | 53 | 197 | 1.0 | 3.0 | 0.00 | 0.00 | 0.00 | 38 | 1004.3 |
| 20260509031004 | 54 | 197 | 0.0 | 3.0 | 0.00 | 0.00 | 0.00 | 38 | 1004.3 |
| 20260509030503 | 54 | 199 | 0.0 | 3.0 | 0.00 | 0.00 | 0.00 | 38 | 1004.3 |
| 20260509030004 | 54 | 199 | 1.0 | 3.0 | 0.00 | 0.00 | 0.00 | 37 | 1004.4 |
| 20260509025503 | 54 | 197 | 1.0 | 3.0 | 0.00 | 0.00 | 0.00 | 37 | 1004.4 |
| 20260509025004 | 54 | 194 | 0.0 | 3.0 | 0.00 | 0.00 | 0.00 | 37 | 1004.4 |
| 20260509024503 | 54 | 186 | 0.0 | 2.0 | 0.00 | 0.00 | 0.00 | 37 | 1004.4 |
| 20260509023503 | 54 | 197 | 0.0 | 3.0 | 0.00 | 0.00 | 0.00 | 36 | 1004.4 |
| 20260509023004 | 55 | 195 | 1.0 | 3.0 | 0.00 | 0.00 | 0.00 | 36 | 1004.4 |
| 20260509022503 | 55 | 190 | 1.0 | 3.0 | 0.00 | 0.00 | 0.00 | 37 | 1004.4 |
| 20260509022004 | 55 | 190 | 0.0 | 4.0 | 0.00 | 0.00 | 0.00 | 36 | 1004.4 |
| 20260509021503 | 55 | 194 | 0.0 | 4.0 | 0.00 | 0.00 | 0.00 | 36 | 1004.4 |
| 20260509021004 | 55 | 196 | 0.0 | 2.0 | 0.00 | 0.00 | 0.00 | 36 | 1004.4 |
| 20260509020503 | 55 | 210 | 0.0 | 1.0 | 0.00 | 0.00 | 0.00 | 35 | 1004.4 |
| 20260509015504 | 56 | 165 | 0.0 | 1.0 | 0.00 | 0.00 | 0.00 | 35 | 1004.4 |
| 20260509015004 | 56 | 0 | 0.0 | 0.0 | 0.00 | 0.00 | 0.00 | 34 | 1004.4 |
| 20260509014503 | 56 | 192 | 0.0 | 2.0 | 0.00 | 0.00 | 0.00 | 34 | 1004.4 |
| 20260509014004 | 57 | 185 | 1.0 | 4.0 | 0.00 | 0.00 | 0.00 | 34 | 1004.4 |
| 20260509013503 | 57 | 184 | 1.0 | 4.0 | 0.00 | 0.00 | 0.00 | 33 | 1004.4 |
| 20260509013004 | 57 | 183 | 1.0 | 4.0 | 0.00 | 0.00 | 0.00 | 33 | 1004.3 |
| 20260509012503 | 57 | 183 | 0.0 | 3.0 | 0.00 | 0.00 | 0.00 | 33 | 1004.3 |
| 20260509012004 | 57 | 193 | 0.0 | 3.0 | 0.00 | 0.00 | 0.00 | 33 | 1004.3 |
| 20260509011503 | 57 | 201 | 0.0 | 2.0 | 0.00 | 0.00 | 0.00 | 32 | 1004.3 |
| 20260509011004 | 58 | 203 | 0.0 | 2.0 | 0.00 | 0.00 | 0.00 | 32 | 1004.3 |
| 20260509010503 | 58 | 218 | 0.0 | 1.0 | 0.00 | 0.00 | 0.00 | 31 | 1004.3 |
| 20260509010004 | 58 | 196 | 0.0 | 2.0 | 0.00 | 0.00 | 0.00 | 31 | 1004.3 |
| 20260509005503 | 59 | 197 | 0.0 | 2.0 | 0.00 | 0.00 | 0.00 | 30 | 1004.3 |
| 20260509005004 | 59 | 196 | 0.0 | 3.0 | 0.00 | 0.00 | 0.00 | 30 | 1004.3 |
| 20260509004503 | 59 | 200 | 1.0 | 3.0 | 0.00 | 0.00 | 0.00 | 30 | 1004.2 |
| 20260509003503 | 60 | 193 | 0.0 | 3.0 | 0.00 | 0.00 | 0.00 | 29 | 1004.2 |
| 20260509003004 | 60 | 199 | 0.0 | 1.0 | 0.00 | 0.00 | 0.00 | 29 | 1004.1 |
| 20260509002503 | 61 | 233 | 0.0 | 2.0 | 0.00 | 0.00 | 0.00 | 29 | 1004.1 |
| 20260509001503 | 61 | 302 | 1.0 | 6.0 | 0.00 | 0.00 | 0.00 | 27 | 1003.9 |
| 20260509001004 | 61 | 300 | 1.0 | 4.0 | 0.00 | 0.00 | 0.00 | 26 | 1003.9 |
| 20260509000503 | 62 | 303 | 2.0 | 6.0 | 0.00 | 0.00 | 0.00 | 27 | 1003.9 |
| 20260509000004 | 62 | 303 | 2.0 | 6.0 | 0.00 | 0.00 | 0.00 | 26 | 1003.9 |
| 20260508235504 | 62 | 302 | 3.0 | 8.0 | 0.00 | 0.00 | 0.00 | 25 | 1003.9 |
| 20260508235004 | 62 | 305 | 3.0 | 8.0 | 0.00 | 0.00 | 0.00 | 25 | 1003.9 |
| 20260508233503 | 63 | 299 | 2.0 | 8.0 | 0.00 | 0.00 | 0.00 | 24 | 1003.9 |
| 20260508233004 | 63 | 304 | 2.0 | 7.0 | 0.00 | 0.00 | 0.00 | 24 | 1004.0 |
| 20260508232004 | 63 | 297 | 1.0 | 9.0 | 0.00 | 0.00 | 0.00 | 25 | 1004.0 |
| 20260508231503 | 63 | 300 | 3.0 | 9.0 | 0.00 | 0.00 | 0.00 | 26 | 1003.9 |
| 20260508230503 | 63 | 296 | 4.0 | 11.0 | 0.00 | 0.00 | 0.00 | 24 | 1003.9 |
| 20260508230004 | 64 | 295 | 3.0 | 11.0 | 0.00 | 0.00 | 0.00 | 23 | 1004.0 |
| 20260508225504 | 64 | 302 | 2.0 | 9.0 | 0.00 | 0.00 | 0.00 | 24 | 1004.0 |
| 20260508225004 | 64 | 300 | 2.0 | 8.0 | 0.00 | 0.00 | 0.00 | 27 | 1003.9 |
| 20260508224504 | 63 | 301 | 3.0 | 9.0 | 0.00 | 0.00 | 0.00 | 26 | 1003.9 |
| 20260508224003 | 64 | 294 | 2.0 | 9.0 | 0.00 | 0.00 | 0.00 | 25 | 1003.9 |
| 20260508223504 | 64 | 279 | 1.0 | 9.0 | 0.00 | 0.00 | 0.00 | 27 | 1003.9 |
| 20260508223003 | 64 | 287 | 2.0 | 9.0 | 0.00 | 0.00 | 0.00 | 26 | 1004.0 |
| 20260508222504 | 64 | 240 | 2.0 | 7.0 | 0.00 | 0.00 | 0.00 | 27 | 1004.0 |
| 20260508222004 | 64 | 283 | 4.0 | 12.0 | 0.00 | 0.00 | 0.00 | 26 | 1004.0 |
| 20260508221504 | 64 | 300 | 4.0 | 12.0 | 0.00 | 0.00 | 0.00 | 26 | 1004.1 |
| 20260508221004 | 64 | 306 | 3.0 | 12.0 | 0.00 | 0.00 | 0.00 | 26 | 1004.1 |
| 20260508220504 | 63 | 307 | 5.0 | 13.0 | 0.00 | 0.00 | 0.00 | 27 | 1004.1 |
| 20260508220004 | 63 | 283 | 4.0 | 13.0 | 0.00 | 0.00 | 0.00 | 27 | 1004.3 |
| 20260508214504 | 63 | 252 | 3.0 | 11.0 | 0.00 | 0.00 | 0.00 | 29 | 1004.3 |
| 20260508214004 | 64 | 208 | 4.0 | 11.0 | 0.00 | 0.00 | 0.00 | 26 | 1004.3 |
| 20260508213004 | 64 | 195 | 3.0 | 10.0 | 0.00 | 0.00 | 0.00 | 26 | 1004.3 |
| 20260508212504 | 64 | 227 | 3.0 | 9.0 | 0.00 | 0.00 | 0.00 | 28 | 1004.3 |
| 20260508212003 | 64 | 200 | 3.0 | 11.0 | 0.00 | 0.00 | 0.00 | 28 | 1004.3 |
| 20260508210504 | 63 | 200 | 3.0 | 19.0 | 0.00 | 0.00 | 0.00 | 30 | 1004.4 |
| 20260508210004 | 63 | 209 | 1.0 | 7.0 | 0.00 | 0.00 | 0.00 | 28 | 1004.6 |
| 20260508205504 | 63 | 306 | 2.0 | 9.0 | 0.00 | 0.00 | 0.00 | 29 | 1004.6 |
| 20260508205004 | 63 | 284 | 4.0 | 10.0 | 0.00 | 0.00 | 0.00 | 28 | 1004.6 |
| 20260508204504 | 64 | 286 | 5.0 | 13.0 | 0.00 | 0.00 | 0.00 | 27 | 1004.6 |
| 20260508204004 | 64 | 277 | 5.0 | 13.0 | 0.00 | 0.00 | 0.00 | 27 | 1004.6 |
| 20260508203503 | 64 | 240 | 3.0 | 9.0 | 0.00 | 0.00 | 0.00 | 28 | 1004.6 |
| 20260508203004 | 63 | 235 | 1.0 | 6.0 | 0.00 | 0.00 | 0.00 | 27 | 1004.9 |
| 20260508201504 | 64 | 284 | 2.0 | 11.0 | 0.00 | 0.00 | 0.00 | 28 | 1005.0 |
| 20260508201004 | 64 | 244 | 2.0 | 11.0 | 0.00 | 0.00 | 0.00 | 29 | 1005.0 |
| 20260508200504 | 63 | 232 | 1.0 | 8.0 | 0.00 | 0.00 | 0.00 | 28 | 1005.0 |
| 20260508200004 | 62 | 308 | 2.0 | 9.0 | 0.00 | 0.00 | 0.00 | 28 | 1005.4 |
| 20260508195004 | 62 | 295 | 4.0 | 9.0 | 0.00 | 0.00 | 0.00 | 29 | 1005.4 |
| 20260508194504 | 62 | 300 | 5.0 | 17.0 | 0.00 | 0.00 | 0.00 | 26 | 1005.5 |
| 20260508194004 | 62 | 301 | 3.0 | 17.0 | 0.00 | 0.00 | 0.00 | 26 | 1005.5 |
| 20260508193504 | 62 | 299 | 5.0 | 14.0 | 0.00 | 0.00 | 0.00 | 26 | 1005.5 |
| 20260508193004 | 62 | 297 | 5.0 | 14.0 | 0.00 | 0.00 | 0.00 | 27 | 1005.5 |
| 20260508192004 | 63 | 295 | 3.0 | 10.0 | 0.00 | 0.00 | 0.00 | 28 | 1005.5 |
| 20260508191504 | 62 | 307 | 5.0 | 13.0 | 0.00 | 0.00 | 0.00 | 28 | 1005.7 |
| 20260508191004 | 63 | 301 | 5.0 | 27.0 | 0.00 | 0.00 | 0.00 | 29 | 1005.7 |
| 20260508190503 | 63 | 191 | 5.0 | 27.0 | 0.00 | 0.00 | 0.00 | 30 | 1005.7 |
| 20260508190004 | 62 | 198 | 7.0 | 12.0 | 0.00 | 0.00 | 0.00 | 26 | 1006.0 |
| 20260508185504 | 63 | 215 | 5.0 | 14.0 | 0.00 | 0.00 | 0.00 | 26 | 1006.0 |
| 20260508184504 | 62 | 265 | 2.0 | 11.0 | 0.00 | 0.00 | 0.00 | 26 | 1006.1 |
| 20260508184004 | 62 | 221 | 4.0 | 12.0 | 0.00 | 0.00 | 0.00 | 26 | 1006.1 |
| 20260508183504 | 63 | 194 | 4.0 | 14.0 | 0.00 | 0.00 | 0.00 | 26 | 1006.1 |
| 20260508183003 | 63 | 190 | 3.0 | 14.0 | 0.00 | 0.00 | 0.00 | 27 | 1006.4 |
| 20260508182504 | 62 | 195 | 3.0 | 11.0 | 0.00 | 0.00 | 0.00 | 30 | 1006.4 |
| 20260508182004 | 62 | 194 | 5.0 | 14.0 | 0.00 | 0.00 | 0.00 | 28 | 1006.4 |
| 20260508181503 | 63 | 194 | 5.0 | 14.0 | 0.00 | 0.00 | 0.00 | 27 | 1006.6 |
| 20260508180504 | 62 | 187 | 4.0 | 11.0 | 0.00 | 0.00 | 0.00 | 26 | 1006.6 |
| 20260508180004 | 62 | 198 | 3.0 | 11.0 | 0.00 | 0.00 | 0.00 | 27 | 1007.1 |
| 20260508175504 | 61 | 299 | 3.0 | 9.0 | 0.00 | 0.00 | 0.00 | 30 | 1007.1 |
| 20260508175004 | 60 | 244 | 5.0 | 12.0 | 0.00 | 0.00 | 0.00 | 28 | 1007.1 |
| 20260508174503 | 61 | 185 | 5.0 | 12.0 | 0.00 | 0.00 | 0.00 | 27 | 1007.3 |
| 20260508174004 | 60 | 253 | 4.0 | 9.0 | 0.00 | 0.00 | 0.00 | 27 | 1007.2 |
| 20260508173504 | 60 | 235 | 5.0 | 16.0 | 0.00 | 0.00 | 0.00 | 29 | 1007.3 |
| 20260508173003 | 60 | 237 | 5.0 | 16.0 | 0.00 | 0.00 | 0.00 | 27 | 1007.3 |
| 20260508172003 | 61 | 198 | 3.0 | 9.0 | 0.00 | 0.00 | 0.00 | 28 | 1007.3 |
| 20260508171504 | 60 | 195 | 2.0 | 9.0 | 0.00 | 0.00 | 0.00 | 27 | 1007.6 |
| 20260508171003 | 60 | 259 | 1.0 | 9.0 | 0.00 | 0.00 | 0.00 | 28 | 1007.6 |
| 20260508170504 | 60 | 264 | 2.0 | 14.0 | 0.00 | 0.00 | 0.00 | 28 | 1007.6 |
| 20260508170004 | 60 | 276 | 3.0 | 14.0 | 0.00 | 0.00 | 0.00 | 30 | 1007.7 |
| 20260508165503 | 59 | 302 | 4.0 | 12.0 | 0.00 | 0.00 | 0.00 | 30 | 1007.7 |
| 20260508165004 | 59 | 282 | 5.0 | 12.0 | 0.00 | 0.00 | 0.00 | 27 | 1007.7 |
| 20260508164504 | 60 | 201 | 3.0 | 9.0 | 0.00 | 0.00 | 0.00 | 30 | 1008.1 |
| 20260508164003 | 60 | 216 | 2.0 | 9.0 | 0.00 | 0.00 | 0.00 | 29 | 1008.0 |
| 20260508163504 | 59 | 301 | 3.0 | 10.0 | 0.00 | 0.00 | 0.00 | 31 | 1008.1 |
| 20260508163003 | 58 | 300 | 5.0 | 14.0 | 0.00 | 0.00 | 0.00 | 33 | 1008.1 |
| 20260508161504 | 58 | 294 | 4.0 | 13.0 | 0.00 | 0.00 | 0.00 | 28 | 1008.1 |
| 20260508161004 | 58 | 288 | 3.0 | 13.0 | 0.00 | 0.00 | 0.00 | 29 | 1008.1 |
| 20260508160504 | 58 | 216 | 1.0 | 7.0 | 0.00 | 0.00 | 0.00 | 32 | 1008.1 |
| 20260508155504 | 58 | 296 | 2.0 | 10.0 | 0.00 | 0.00 | 0.00 | 33 | 1008.2 |
| 20260508155004 | 57 | 301 | 2.0 | 10.0 | 0.00 | 0.00 | 0.00 | 31 | 1008.2 |
| 20260508154504 | 58 | 222 | 1.0 | 7.0 | 0.00 | 0.00 | 0.00 | 32 | 1008.3 |
| 20260508154004 | 58 | 187 | 2.0 | 7.0 | 0.00 | 0.00 | 0.00 | 34 | 1008.3 |
| 20260508153503 | 58 | 181 | 2.0 | 6.0 | 0.00 | 0.00 | 0.00 | 31 | 1008.3 |
| 20260508153004 | 58 | 188 | 2.0 | 6.0 | 0.00 | 0.00 | 0.00 | 33 | 1008.5 |
| 20260508152504 | 57 | 182 | 2.0 | 5.0 | 0.00 | 0.00 | 0.00 | 34 | 1008.5 |
| 20260508152004 | 56 | 246 | 3.0 | 11.0 | 0.00 | 0.00 | 0.00 | 36 | 1008.5 |
| 20260508151504 | 56 | 214 | 4.0 | 11.0 | 0.00 | 0.00 | 0.00 | 34 | 1008.6 |
| 20260508151003 | 56 | 182 | 3.0 | 10.0 | 0.00 | 0.00 | 0.00 | 36 | 1008.6 |
| 20260508150005 | 56 | 298 | 3.0 | 8.0 | 0.00 | 0.00 | 0.00 | 38 | 1008.7 |
| 20260508145503 | 55 | 287 | 3.0 | 8.0 | 0.00 | 0.00 | 0.00 | 37 | 1008.7 |
| 20260508145004 | 55 | 270 | 2.0 | 8.0 | 0.00 | 0.00 | 0.00 | 37 | 1008.7 |
| 20260508144504 | 55 | 277 | 2.0 | 9.0 | 0.00 | 0.00 | 0.00 | 37 | 1008.8 |
| 20260508144003 | 55 | 211 | 3.0 | 9.0 | 0.00 | 0.00 | 0.00 | 38 | 1008.8 |
| 20260508143504 | 55 | 200 | 3.0 | 8.0 | 0.00 | 0.00 | 0.00 | 40 | 1008.8 |
| 20260508143004 | 54 | 229 | 2.0 | 7.0 | 0.00 | 0.00 | 0.00 | 39 | 1009.0 |
| 20260508142503 | 54 | 276 | 2.0 | 7.0 | 0.00 | 0.00 | 0.00 | 44 | 1009.0 |
| 20260508142004 | 54 | 293 | 2.0 | 6.0 | 0.00 | 0.00 | 0.00 | 43 | 1009.0 |
| 20260508141504 | 54 | 274 | 2.0 | 6.0 | 0.00 | 0.00 | 0.00 | 43 | 1009.1 |
| 20260508141003 | 54 | 289 | 1.0 | 7.0 | 0.00 | 0.00 | 0.00 | 45 | 1009.1 |
| 20260508140504 | 53 | 271 | 2.0 | 7.0 | 0.00 | 0.00 | 0.00 | 46 | 1009.1 |
| 20260508140004 | 53 | 192 | 2.0 | 7.0 | 0.00 | 0.00 | 0.00 | 49 | 1009.2 |
| 20260508135504 | 53 | 189 | 3.0 | 7.0 | 0.00 | 0.00 | 0.00 | 48 | 1009.2 |
| 20260508134504 | 52 | 178 | 2.0 | 7.0 | 0.00 | 0.00 | 0.00 | 50 | 1009.1 |
| 20260508134004 | 52 | 174 | 2.0 | 7.0 | 0.00 | 0.00 | 0.00 | 52 | 1009.1 |
| 20260508133504 | 51 | 176 | 2.0 | 7.0 | 0.00 | 0.00 | 0.00 | 53 | 1009.1 |
| 20260508133003 | 51 | 185 | 3.0 | 9.0 | 0.00 | 0.00 | 0.00 | 55 | 1009.1 |
| 20260508132504 | 50 | 183 | 3.0 | 9.0 | 0.00 | 0.00 | 0.00 | 55 | 1009.1 |
| 20260508131504 | 50 | 192 | 1.0 | 8.0 | 0.00 | 0.00 | 0.00 | 56 | 1009.2 |
| 20260508131004 | 49 | 191 | 1.0 | 7.0 | 0.00 | 0.00 | 0.00 | 57 | 1009.2 |
| 20260508130504 | 49 | 206 | 1.0 | 6.0 | 0.00 | 0.00 | 0.00 | 57 | 1009.2 |
| 20260508125503 | 48 | 175 | 2.0 | 7.0 | 0.00 | 0.00 | 0.00 | 58 | 1009.3 |
| 20260508125003 | 48 | 175 | 3.0 | 7.0 | 0.00 | 0.00 | 0.00 | 57 | 1009.3 |
| 20260508124504 | 48 | 182 | 1.0 | 7.0 | 0.00 | 0.00 | 0.00 | 57 | 1009.3 |
| 20260508124004 | 48 | 174 | 0.0 | 4.0 | 0.00 | 0.00 | 0.00 | 59 | 1009.3 |
| 20260508123504 | 47 | 169 | 0.0 | 4.0 | 0.00 | 0.00 | 0.00 | 60 | 1009.3 |
| 20260508122504 | 46 | 178 | 0.0 | 2.0 | 0.00 | 0.00 | 0.00 | 64 | 1009.2 |
| 20260508122004 | 45 | 174 | 0.0 | 2.0 | 0.00 | 0.00 | 0.00 | 67 | 1009.1 |
| 20260508121503 | 44 | 174 | 0.0 | 2.0 | 0.00 | 0.00 | 0.00 | 68 | 1009.0 |
| 20260508121004 | 43 | 0 | 0.0 | 0.0 | 0.00 | 0.00 | 0.00 | 69 | 1009.0 |
| 20260508120503 | 43 | 0 | 0.0 | 0.0 | 0.00 | 0.00 | 0.00 | 70 | 1009.0 |
| 20260508120004 | 42 | 0 | 0.0 | 0.0 | 0.00 | 0.00 | 0.00 | 70 | 1009.1 |
| 20260508115504 | 42 | 0 | 0.0 | 0.0 | 0.00 | 0.00 | 0.00 | 70 | 1009.1 |
| 20260508115004 | 42 | 0 | 0.0 | 0.0 | 0.00 | 0.00 | 0.00 | 71 | 1009.1 |
| 20260508114504 | 41 | 0 | 0.0 | 0.0 | 0.00 | 0.00 | 0.00 | 71 | 1009.1 |
| 20260508114004 | 41 | 210 | 0.0 | 1.0 | 0.00 | 0.00 | 0.00 | 74 | 1009.1 |
| 20260508113504 | 40 | 210 | 0.0 | 1.0 | 0.00 | 0.00 | 0.00 | 74 | 1009.1 |
| 20260508113005 | 40 | 0 | 0.0 | 0.0 | 0.00 | 0.00 | 0.00 | 75 | 1009.0 |
| 20260508112504 | 39 | 0 | 0.0 | 0.0 | 0.00 | 0.00 | 0.00 | 75 | 1009.0 |
| 20260508112004 | 39 | 0 | 0.0 | 0.0 | 0.00 | 0.00 | 0.00 | 78 | 1009.0 |
| 20260508111504 | 38 | 0 | 0.0 | 0.0 | 0.00 | 0.00 | 0.00 | 81 | 1008.6 |
| 20260508111004 | 36 | 0 | 0.0 | 0.0 | 0.00 | 0.00 | 0.00 | 81 | 1008.6 |
| 20260508110504 | 37 | 0 | 0.0 | 0.0 | 0.00 | 0.00 | 0.00 | 78 | 1008.7 |
| 20260508110004 | 37 | 0 | 0.0 | 0.0 | 0.00 | 0.00 | 0.00 | 78 | 1008.7 |
| 20260508105504 | 37 | 0 | 0.0 | 0.0 | 0.00 | 0.00 | 0.00 | 78 | 1008.7 |
| 20260508105004 | 37 | 0 | 0.0 | 0.0 | 0.00 | 0.00 | 0.00 | 78 | 1008.7 |
| 20260508104504 | 37 | 0 | 0.0 | 0.0 | 0.00 | 0.00 | 0.00 | 78 | 1008.9 |
| 20260508104004 | 37 | 0 | 0.0 | 0.0 | 0.00 | 0.00 | 0.00 | 78 | 1008.9 |
| 20260508103004 | 37 | 0 | 0.0 | 0.0 | 0.00 | 0.00 | 0.00 | 78 | 1008.9 |
| 20260508101504 | 37 | 0 | 0.0 | 0.0 | 0.00 | 0.00 | 0.00 | 78 | 1009.1 |
| 20260508101004 | 37 | 0 | 0.0 | 0.0 | 0.00 | 0.00 | 0.00 | 78 | 1009.1 |
| 20260508100504 | 37 | 0 | 0.0 | 0.0 | 0.00 | 0.00 | 0.00 | 78 | 1009.1 |
| 20260508100004 | 37 | 0 | 0.0 | 0.0 | 0.00 | 0.00 | 0.00 | 78 | 1009.1 |
| 20260508095504 | 37 | 0 | 0.0 | 0.0 | 0.00 | 0.00 | 0.00 | 78 | 1009.1 |
| 20260508095004 | 37 | 0 | 0.0 | 0.0 | 0.00 | 0.00 | 0.00 | 78 | 1009.1 |
| 20260508094004 | 37 | 0 | 0.0 | 0.0 | 0.00 | 0.00 | 0.00 | 78 | 1009.2 |
| 20260508093504 | 37 | 0 | 0.0 | 0.0 | 0.00 | 0.00 | 0.00 | 78 | 1009.2 |
| 20260508093004 | 37 | 0 | 0.0 | 0.0 | 0.00 | 0.00 | 0.00 | 78 | 1009.2 |
| 20260508092504 | 37 | 0 | 0.0 | 0.0 | 0.00 | 0.00 | 0.00 | 78 | 1009.2 |
| 20260508092004 | 37 | 0 | 0.0 | 0.0 | 0.00 | 0.00 | 0.00 | 78 | 1009.2 |
| 20260508091504 | 37 | 0 | 0.0 | 0.0 | 0.00 | 0.00 | 0.00 | 78 | 1009.2 |
| 20260508090503 | 37 | 0 | 0.0 | 0.0 | 0.00 | 0.00 | 0.00 | 78 | 1009.2 |
| 20260508090004 | 37 | 0 | 0.0 | 0.0 | 0.00 | 0.00 | 0.00 | 78 | 1009.1 |
| 20260508085003 | 36 | 0 | 0.0 | 0.0 | 0.00 | 0.00 | 0.00 | 78 | 1009.1 |
| 20260508084003 | 37 | 0 | 0.0 | 0.0 | 0.00 | 0.00 | 0.00 | 77 | 1009.1 |
| 20260508083504 | 37 | 0 | 0.0 | 0.0 | 0.00 | 0.00 | 0.00 | 77 | 1009.1 |
| 20260508082504 | 38 | 0 | 0.0 | 0.0 | 0.00 | 0.00 | 0.00 | 76 | 1009.2 |
| 20260508082003 | 38 | 0 | 0.0 | 0.0 | 0.00 | 0.00 | 0.00 | 76 | 1009.2 |
| 20260508081504 | 38 | 205 | 0.0 | 1.0 | 0.00 | 0.00 | 0.00 | 75 | 1009.2 |
| 20260508081004 | 38 | 205 | 0.0 | 1.0 | 0.00 | 0.00 | 0.00 | 75 | 1009.2 |
| 20260508080503 | 38 | 0 | 0.0 | 0.0 | 0.00 | 0.00 | 0.00 | 75 | 1009.2 |
| 20260508080004 | 38 | 206 | 0.0 | 1.0 | 0.00 | 0.00 | 0.00 | 74 | 1009.2 |
| 20260508075503 | 39 | 212 | 0.0 | 1.0 | 0.00 | 0.00 | 0.00 | 74 | 1009.2 |
| 20260508075004 | 39 | 215 | 0.0 | 1.0 | 0.00 | 0.00 | 0.00 | 73 | 1009.2 |
| 20260508074504 | 39 | 217 | 0.0 | 1.0 | 0.00 | 0.00 | 0.00 | 73 | 1009.2 |
| 20260508074004 | 39 | 218 | 0.0 | 1.0 | 0.00 | 0.00 | 0.00 | 73 | 1009.2 |
| 20260508073504 | 39 | 219 | 0.0 | 1.0 | 0.00 | 0.00 | 0.00 | 73 | 1009.2 |
| 20260508072504 | 39 | 236 | 0.0 | 1.0 | 0.00 | 0.00 | 0.00 | 73 | 1009.3 |
| 20260508072004 | 39 | 0 | 0.0 | 0.0 | 0.00 | 0.00 | 0.00 | 73 | 1009.3 |
| 20260508071504 | 39 | 0 | 0.0 | 0.0 | 0.00 | 0.00 | 0.00 | 73 | 1009.5 |
| 20260508071004 | 40 | 0 | 0.0 | 0.0 | 0.00 | 0.00 | 0.00 | 73 | 1009.5 |
| 20260508070504 | 40 | 256 | 0.0 | 1.0 | 0.00 | 0.00 | 0.00 | 72 | 1009.5 |
| 20260508065003 | 40 | 287 | 0.0 | 1.0 | 0.00 | 0.00 | 0.00 | 71 | 1009.6 |
| 20260508064504 | 40 | 289 | 0.0 | 2.0 | 0.00 | 0.00 | 0.00 | 72 | 1009.6 |
| 20260508064004 | 40 | 284 | 0.0 | 2.0 | 0.00 | 0.00 | 0.00 | 72 | 1009.6 |
| 20260508063504 | 40 | 279 | 0.0 | 1.0 | 0.00 | 0.00 | 0.00 | 72 | 1009.6 |
| 20260508063004 | 40 | 269 | 0.0 | 1.0 | 0.00 | 0.00 | 0.00 | 72 | 1009.7 |
| 20260508062504 | 40 | 268 | 0.0 | 1.0 | 0.00 | 0.00 | 0.00 | 72 | 1009.7 |
| 20260508062004 | 40 | 268 | 0.0 | 1.0 | 0.00 | 0.00 | 0.00 | 72 | 1009.7 |
| 20260508061504 | 40 | 284 | 0.0 | 1.0 | 0.00 | 0.00 | 0.00 | 71 | 1009.7 |
| 20260508061003 | 40 | 284 | 0.0 | 1.0 | 0.00 | 0.00 | 0.00 | 71 | 1009.7 |
| 20260508060504 | 41 | 0 | 0.0 | 0.0 | 0.00 | 0.00 | 0.00 | 71 | 1009.7 |
| 20260508060004 | 41 | 0 | 0.0 | 0.0 | 0.00 | 0.00 | 0.00 | 70 | 1009.7 |
| 20260508055504 | 41 | 0 | 0.0 | 0.0 | 0.00 | 0.00 | 0.00 | 70 | 1009.7 |
| 20260508054503 | 41 | 0 | 0.0 | 0.0 | 0.00 | 0.00 | 0.00 | 69 | 1009.7 |
| 20260508054004 | 42 | 0 | 0.0 | 0.0 | 0.00 | 0.00 | 0.00 | 69 | 1009.7 |